JILIN-01 KUANFU 01C (52443 NORAD) Tracking and Keplerian Element Data

This shows tracking and keplerian element data for the satellite.

Feedback or suggestion? Click here.




ElementValue
Catalog52443
NameJILIN-01 KUANFU 01C
Epoch Orbit237
Epoch Day140.81885521
Epoch Year2022
RAAN205.4314
Inclination97.6828
Eccentricity0.0012252
Argument of Perigee210.167
Mean Anonmoly259.1396
Mean Motion15.09452097
Decay Rate3.207E-05
L11 52443U 22048A 22140.81885521 .00003207 00000+0 20419-3 0 9991
L22 52443 97.6828 205.4314 0012252 210.1670 259.1396 15.09452097 2377

Live tracking and technical data element details for JILIN-01 KUANFU 01C (NORAD 52443). JILIN-01 KUANFU 01C can be tracked NOW for your location showing map with azimuth and elevation plus other details from your city location.

Track the satellite on the map from your city or location and see movement details for azimuth, elevation, latitude, longitude, range, height, and movement on the map or in text.







IsCatalogInMostPopularTable: catalog: 52443, numindb: -1

Insert: records affected: 1


GetName: 52443 JILIN-01 KUANFU 01C

Hit Count: inserted at: Mon, 23 May 2022 17:48:27 GMT